ASTRA 3B

Last updated on Sun Jun 21 2026 00:03:04 GMT+0000 (Coordinated Universal Time)

1 36581U 10021A 26171.32539470 .00000132 00000+0 00000+0 0 9991 2 36581 1.4774 83.5169 0004137 8.5551 317.0918 1.00272359 58897
UTC large
Height (km)
Speed (km/s)
/
Latitude / Longitude
Inclination (degrees)
Orbital Period (minutes)
Azimuth
Elevation
Range (km)
Doppler Factor

Next 0 passes for location: London (51.5072 / 0.1276)

No passes found over London.
ASTRA 3B